Location: Prairie Dale
(45.6972°N, 104.5033°W)
Time: 08:39:03
(UTC+00:00)

deb Kosmos-2227 - Visible Passes

Search period start: 27 November 2022 00:00
Search period end: 07 December 2022 00:00
Orbit: 574 x 672 km, 70.9° (Epoch: 26 November)

Date Brightness Start Highest point End Pass type
(mag) Time Alt. Az. Time Alt. Az. Time Alt. Az.
27 Nov ? 00:46:54 10° NW 00:51:12 34° WSW 00:55:25 10° S visible
27 Nov ? 13:21:37 10° SE 13:24:32 17° E 13:27:31 10° ENE visible
28 Nov ? 01:06:27 10° WNW 01:09:34 18° W 01:12:40 10° SW visible
28 Nov ? 13:38:50 10° S 13:42:54 33° ESE 13:47:06 10° NE visible
28 Nov ? 23:44:41 10° NNW 23:49:29 72° WSW 23:54:08 10° SSE visible
30 Nov ? 00:03:39 10° NW 00:08:01 36° WSW 00:12:17 10° S visible
30 Nov ? 12:38:37 10° SE 12:41:22 16° E 12:44:09 10° ENE visible
01 Dec ? 00:23:06 10° WNW 00:26:24 19° WSW 00:29:39 10° SW visible
01 Dec ? 12:55:42 10° SSE 12:59:42 31° ESE 13:03:50 10° NE visible
02 Dec ? 13:13:41 10° SSW 13:18:11 62° ESE 13:22:51 10° NNE visible
03 Dec ? 11:55:35 10° SE 11:58:08 15° E 12:00:43 10° ENE visible
03 Dec ? 13:32:15 10° SW 13:36:50 68° WNW 13:41:34 10° NNE visible
04 Dec ? 12:12:30 10° SSE 12:16:27 29° ESE 12:20:29 10° NE visible
05 Dec ? 12:30:24 10° S 12:34:54 57° ESE 12:39:33 10° NNE visible
06 Dec ? 11:12:34 10° SE 11:14:52 14° E 11:17:11 10° ENE visible
06 Dec ? 12:48:54 10° SSW 12:53:31 73° WNW 12:58:16 10° NNE visible
